NOZ59B ENVA-ENGM

Flight info

Callsign NOZ59B
Flight time N/A
Altitude 31000
Route UTUNA DCT TUTBI DCT BELGU
Aircraft B738/M-SDE2E3FGHIRWXY/LB1

Departure

Time 2026-04-28 22:58
Airport Trondheim Airport, Værnes (ENVA)

Arrival

Time N/A
Airport Oslo-Gardermoen International Airport (ENGM)
Time Latitude Longitude Altitude Speed Heading
2026-04-28 22:44 63.45500 10.91825 42 ft 0 kts 180°
2026-04-28 22:51 63.45508 10.91826 42 ft 4 kts 174°
2026-04-28 22:51 63.45534 10.91824 41 ft 4 kts 195°
2026-04-28 22:52 63.45553 10.91853 40 ft 4 kts 251°
2026-04-28 22:52 63.45556 10.91888 40 ft 1 kts 270°
2026-04-28 22:54 63.45556 10.91842 38 ft 6 kts 270°
2026-04-28 22:54 63.45556 10.91732 40 ft 0 kts 271°
2026-04-28 22:54 63.45556 10.91698 40 ft 5 kts 270°
2026-04-28 22:54 63.45557 10.91563 38 ft 12 kts 270°
2026-04-28 22:55 63.45557 10.91346 42 ft 13 kts 270°
2026-04-28 22:55 63.45565 10.91171 39 ft 9 kts 309°
2026-04-28 22:55 63.45598 10.91051 38 ft 10 kts 276°
2026-04-28 22:55 63.45597 10.90882 37 ft 13 kts 270°
2026-04-28 22:56 63.45598 10.90638 32 ft 18 kts 270°
2026-04-28 22:56 63.45598 10.90340 28 ft 20 kts 270°
2026-04-28 22:56 63.45599 10.90013 24 ft 21 kts 270°
2026-04-28 22:56 63.45600 10.89688 28 ft 21 kts 271°
2026-04-28 22:57 63.45656 10.89423 23 ft 19 kts 312°
2026-04-28 22:57 63.45720 10.89299 24 ft 8 kts
2026-04-28 22:57 63.45762 10.89367 29 ft 8 kts 71°
2026-04-28 22:57 63.45765 10.89573 25 ft 32 kts 90°
2026-04-28 22:58 63.45762 10.90626 29 ft 101 kts 90°
2026-04-28 22:58 63.45759 10.92634 57 ft 154 kts 90°
2026-04-28 22:58 63.45753 10.95144 583 ft 158 kts 91°
2026-04-28 22:58 63.45755 10.97539 1407 ft 154 kts 90°
2026-04-28 22:59 63.45770 11.00042 1885 ft 173 kts 90°
2026-04-28 22:59 63.45759 11.02969 2173 ft 201 kts 91°
2026-04-28 22:59 63.45750 11.06164 2635 ft 210 kts 91°
2026-04-28 22:59 63.45740 11.09524 3107 ft 222 kts 91°
2026-04-28 23:00 63.45720 11.13058 3587 ft 233 kts 91°
2026-04-28 23:00 63.45697 11.16783 3731 ft 248 kts 91°
2026-04-28 23:00 63.45669 11.20730 3928 ft 261 kts 92°
2026-04-28 23:00 63.45593 11.24851 4063 ft 268 kts 91°
2026-04-28 23:01 63.45520 11.28987 4210 ft 266 kts 91°
2026-04-28 23:01 63.45458 11.33133 4186 ft 270 kts 91°
2026-04-28 23:01 63.45393 11.37304 4202 ft 266 kts 91°
2026-04-28 23:01 63.45327 11.41421 4198 ft 264 kts 91°
2026-04-28 23:02 63.45263 11.45555 4126 ft 268 kts 91°
2026-04-28 23:02 63.45189 11.49736 3981 ft 270 kts 91°
2026-04-28 23:02 63.45108 11.53917 3816 ft 268 kts 91°
2026-04-28 23:02 63.45025 11.58044 3764 ft 264 kts 92°
2026-04-28 23:03 63.44960 11.62061 3934 ft 256 kts 91°
2026-04-28 23:03 63.44919 11.66123 4132 ft 268 kts 91°
2026-04-28 23:03 63.44779 11.70275 4928 ft 269 kts 103°
2026-04-28 23:03 63.43942 11.73899 5918 ft 260 kts 133°
2026-04-28 23:04 63.42486 11.76118 6862 ft 251 kts 163°
2026-04-28 23:04 63.39009 11.76436 8182 ft 253 kts 195°
2026-04-28 23:04 63.37249 11.75620 8641 ft 268 kts 195°
2026-04-28 23:05 63.35348 11.74722 8860 ft 289 kts 197°
2026-04-28 23:05 63.34041 11.73993 9214 ft 294 kts 198°
2026-04-28 23:05 63.32039 11.72817 9834 ft 301 kts 198°
2026-04-28 23:05 63.29999 11.71603 10492 ft 306 kts 197°
2026-04-28 23:06 63.27929 11.70379 11043 ft 316 kts 195°
2026-04-28 23:06 63.25734 11.69093 11290 ft 334 kts 195°
2026-04-28 23:06 63.23493 11.67583 11903 ft 338 kts 205°
2026-04-28 23:06 63.21493 11.64768 11661 ft 342 kts 224°
2026-04-28 23:07 63.19792 11.61149 11365 ft 339 kts 225°
2026-04-28 23:07 63.18087 11.57574 10919 ft 337 kts 224°
2026-04-28 23:07 63.16380 11.54010 10434 ft 337 kts 224°
2026-04-28 23:07 63.14675 11.50459 10003 ft 335 kts 224°
2026-04-28 23:08 63.12952 11.47182 10716 ft 320 kts 214°
2026-04-28 23:08 63.10924 11.45360 10721 ft 314 kts 196°
2026-04-28 23:08 63.08747 11.44353 10775 ft 329 kts 193°
2026-04-28 23:08 63.06439 11.43344 11060 ft 346 kts 194°
2026-04-28 23:09 63.04047 11.42196 11567 ft 356 kts 195°
2026-04-28 23:09 63.01611 11.41013 12217 ft 361 kts 194°
2026-04-28 23:09 62.99143 11.39830 12928 ft 365 kts 194°
2026-04-28 23:09 62.96644 11.38637 13589 ft 371 kts 194°
2026-04-28 23:10 62.94118 11.37605 14248 ft 378 kts 189°
2026-04-28 23:10 62.91486 11.36937 14849 ft 384 kts 187°
2026-04-28 23:10 62.88804 11.36416 15475 ft 390 kts 186°
2026-04-28 23:10 62.86257 11.35957 16049 ft 395 kts 186°